Theta_e
313 313 312 311 311 311 312 312 313 314 314 315 315 315 314 313 313 315 316 316 317 317 316 318 318 319 323 326 326 323 329 336 337 337 338 338 340 339 339 339 339 339 339 339 340 341 342 341 341 340 339 340 340 340 340 339 339 338 338 337 337 336 335 334 334 333 334 334 334 335 336 336 336 336 335 336 337 336 336 335 335 334 334 334 333 332
313 312 312 311 312 312 313 314 315 315 314 314 315 315 314 313 314 315 316 316 318 317 316 318 319 319 323 326 326 323 328 335 336 336 337 338 338 338 337 338 338 339 339 339 340 341 341 341 341 341 340 340 340 340 340 339 339 339 339 338 337 337 336 336 336 336 336 336 336 336 337 337 336 336 336 336 335 335 335 334 334 334 334 333 333 332
312 312 313 313 313 313 314 315 315 315 315 315 314 314 314 314 314 315 316 317 317 318 318 318 318 319 324 327 325 324 328 334 335 334 336 337 337 338 338 339 340 340 340 340 340 341 341 340 340 339 339 339 338 340 340 339 339 339 339 339 338 337 338 337 337 337 337 337 337 337 337 336 335 335 334 334 333 333 333 333 333 333 333 333 333 333
312 312 313 314 313 314 315 315 314 315 315 315 314 314 314 315 314 313 315 317 317 318 319 318 320 322 326 329 326 328 332 336 336 336 336 336 337 338 339 340 341 341 341 340 339 340 339 338 338 338 338 337 337 338 338 338 338 339 339 339 338 339 338 338 337 337 337 336 337 336 336 334 333 333 333 333 333 333 334 334 334 334 333 333 332 333
313 312 313 315 314 315 315 315 314 314 313 314 314 314 314 315 315 315 315 317 317 319 319 322 324 325 327 330 328 330 335 337 335 336 336 336 337 338 339 340 340 341 340 339 339 338 338 337 337 337 337 336 335 336 337 337 337 336 336 336 337 337 337 337 336 336 335 334 334 334 334 333 332 333 334 334 335 335 335 335 335 334 333 333 332 332
313 314 314 314 314 315 315 314 314 313 313 313 315 314 314 315 316 316 316 316 315 316 318 322 326 328 328 330 330 331 335 337 336 335 335 334 336 337 339 339 339 339 339 338 338 337 337 337 337 336 335 334 334 334 334 335 335 335 334 334 334 334 334 334 334 333 333 333 333 334 334 334 334 334 335 335 335 335 336 335 335 334 332 332 331 331
313 314 314 315 314 314 314 313 313 313 312 312 315 316 316 316 316 316 316 315 314 315 318 322 327 330 329 328 331 333 335 337 336 336 335 334 334 336 337 338 337 337 337 337 336 336 336 336 336 335 334 334 334 335 334 335 335 335 335 335 335 335 334 332 332 332 334 334 335 335 335 335 335 335 336 336 336 336 336 336 335 334 332 331 331 331
313 314 314 314 314 314 313 312 312 313 313 312 315 316 316 317 316 316 316 315 316 316 321 325 326 328 327 327 331 333 334 336 338 337 336 334 334 335 336 335 335 335 335 335 335 335 336 335 335 335 334 334 334 335 335 335 335 335 336 336 336 336 335 333 333 333 334 335 335 336 336 336 336 336 335 336 336 337 336 336 335 334 333 331 331 331
313 314 314 314 313 313 312 312 313 313 313 313 316 316 317 317 317 318 316 316 318 316 320 325 326 327 327 327 330 331 332 336 339 337 335 335 334 334 333 333 333 333 333 334 334 333 334 333 334 334 334 333 334 334 333 333 333 333 334 335 335 335 335 334 334 334 334 335 335 336 336 335 335 335 336 336 336 336 336 336 336 335 334 332 331 331
313 314 314 314 313 312 313 313 313 313 314 315 316 316 317 317 318 318 317 317 318 317 320 324 325 327 328 327 330 330 331 336 339 335 333 333 332 331 331 331 330 331 331 332 332 332 331 331 332 332 333 333 332 332 331 331 332 333 333 333 333 333 334 335 334 334 335 335 335 336 335 335 335 335 335 335 335 335 335 335 335 334 333 333 332 332
313 314 314 315 314 313 313 314 314 314 315 316 316 315 316 318 318 319 319 319 317 318 319 321 322 324 326 326 328 330 332 336 338 335 333 332 331 330 330 329 329 329 329 329 329 329 329 329 330 331 331 331 331 331 330 330 330 332 332 331 331 331 332 332 333 333 334 334 335 335 334 334 334 334 335 335 334 334 335 334 333 333 333 333 333 333
313 313 314 315 314 315 314 314 314 314 315 316 316 315 316 316 317 316 318 317 317 319 319 317 319 320 322 326 327 332 335 335 335 334 332 330 329 329 328 328 328 328 328 327 327 327 327 327 328 328 328 328 328 328 328 327 328 328 328 328 327 327 328 329 330 331 331 332 333 332 332 332 332 332 334 334 333 333 333 333 333 333 333 332 332 333
314 313 313 315 315 315 314 313 314 314 315 315 315 316 316 315 315 314 317 318 317 318 317 317 318 316 323 330 332 335 335 333 333 332 330 329 328 328 327 327 327 327 327 326 326 326 326 326 326 326 326 325 325 325 324 324 324 325 325 325 325 324 325 325 326 327 328 329 330 330 330 329 329 331 332 332 332 332 331 331 331 332 332 332 331 331
315 314 313 315 315 315 314 312 313 313 314 315 314 316 316 315 314 315 318 319 319 318 317 317 315 317 329 335 333 334 333 331 331 330 328 328 327 327 326 326 326 325 326 325 325 325 325 325 325 325 324 324 323 323 323 322 322 323 323 324 324 324 324 324 324 324 324 325 326 327 327 326 326 326 327 328 329 329 329 329 330 330 330 330 330 330
315 315 314 314 314 315 315 313 313 314 314 314 314 316 317 316 317 317 317 319 320 319 316 315 320 327 336 336 331 331 330 329 329 327 327 326 325 325 325 324 325 324 324 324 324 324 323 323 323 323 323 322 322 322 321 322 322 323 323 323 323 323 323 323 322 321 321 322 322 323 323 323 324 325 324 325 326 327 328 329 329 329 329 329 329 329
314 314 314 315 315 314 315 314 314 315 314 316 315 315 316 318 321 322 322 325 326 320 320 326 331 333 334 331 328 328 327 327 327 326 326 325 324 324 324 324 324 323 323 323 323 322 322 322 322 321 321 321 321 321 321 321 322 322 322 322 321 320 320 320 320 320 320 320 320 320 320 321 323 324 324 324 324 325 327 328 329 330 329 329 329 328
315 316 314 314 315 313 314 314 314 315 315 317 316 315 316 317 321 322 321 325 327 324 327 332 335 334 332 330 327 326 326 325 325 326 325 324 324 323 323 323 323 322 322 322 322 322 321 321 321 321 321 321 321 321 321 321 321 321 321 320 320 319 319 319 320 320 319 319 320 320 320 321 322 323 324 323 323 324 326 327 328 329 329 329 328 328
317 318 316 314 315 314 314 315 314 316 316 316 315 315 316 315 320 325 323 320 323 328 330 333 335 335 335 333 329 327 327 326 324 325 325 324 323 323 323 323 322 322 322 321 321 320 320 320 320 320 320 320 320 320 320 320 320 320 320 320 319 319 320 320 320 320 319 319 319 320 320 320 320 321 322 322 323 324 324 326 327 327 328 329 329 328
317 317 316 314 315 315 315 316 316 316 315 316 316 316 318 317 317 322 322 319 320 328 333 333 334 334 334 332 331 329 328 326 324 324 323 323 323 322 322 322 321 321 320 320 319 319 319 319 319 320 319 319 320 320 319 319 320 320 319 319 319 319 320 320 320 320 319 319 319 319 318 318 319 319 320 320 320 322 323 323 325 326 327 327 328 328
318 319 318 315 314 316 315 315 315 316 315 316 315 315 317 320 319 318 319 321 322 327 336 336 333 335 333 330 330 329 327 325 324 323 323 322 322 322 321 321 321 320 319 319 318 318 319 319 319 319 319 319 319 319 319 319 319 319 319 318 318 319 320 320 320 320 319 318 319 317 317 318 318 319 319 318 318 319 320 321 322 324 325 325 325 326
317 319 321 318 313 315 315 314 315 315 315 314 315 315 315 315 319 320 318 320 322 327 334 336 335 335 332 329 329 328 325 324 324 323 322 322 321 321 321 320 320 319 318 318 318 318 318 319 319 319 319 318 319 319 318 318 318 318 318 318 318 319 319 319 319 319 318 318 318 317 316 317 318 318 317 317 317 317 318 319 319 321 322 323 323 324
319 321 325 321 314 314 314 315 315 315 315 315 314 316 316 316 318 319 317 316 317 322 328 334 336 334 330 330 329 326 325 324 323 323 322 321 321 320 320 319 319 318 318 317 318 318 318 318 318 318 318 318 318 318 318 317 317 317 318 318 317 318 318 318 318 318 318 317 316 316 316 316 316 316 315 315 316 316 316 317 318 319 320 321 321 322
322 323 324 319 314 315 316 315 315 315 315 314 315 316 318 319 318 319 324 322 315 317 326 334 336 332 329 330 329 326 325 324 323 322 321 321 320 320 319 318 318 317 317 317 317 318 318 318 318 317 317 317 317 317 317 317 317 317 317 317 317 317 317 317 317 317 317 317 316 315 315 315 315 315 314 314 315 315 316 316 318 318 318 319 320 320
320 320 321 317 315 315 316 315 314 315 315 313 315 316 317 320 320 323 332 330 319 319 329 336 337 332 328 328 327 325 324 323 322 321 321 320 319 319 318 317 317 317 317 317 317 317 317 317 317 316 316 316 317 316 316 316 316 316 316 316 316 316 316 316 316 316 316 316 315 314 314 314 314 314 314 314 315 315 316 317 317 318 318 317 318 319
317 320 324 320 317 317 317 317 316 315 315 315 317 316 315 319 319 321 326 324 319 322 330 336 336 332 328 326 324 323 322 321 321 320 319 319 318 317 317 316 316 317 317 317 317 317 317 316 316 316 316 316 316 316 316 316 315 315 315 315 315 315 315 315 315 315 315 314 314 314 313 313 313 313 314 314 315 315 316 316 317 317 317 316 316 317
318 323 326 323 320 319 318 317 316 314 313 316 319 317 315 318 318 320 325 323 319 324 331 335 334 331 327 324 323 321 321 320 320 319 318 318 317 317 316 316 316 316 316 316 316 316 316 316 315 315 315 315 315 315 315 315 314 314 315 315 315 314 314 315 315 314 314 314 313 313 313 312 312 312 312 313 314 314 315 315 316 316 316 315 315 315
318 322 324 324 322 321 318 316 316 316 315 316 318 316 315 316 317 322 329 327 323 329 333 332 330 329 326 324 322 321 320 319 319 318 317 317 316 316 316 316 316 316 316 316 316 315 315 315 314 314 314 314 314 313 313 313 313 313 314 313 313 313 314 314 314 314 313 313 312 312 312 311 311 311 311 311 312 313 313 314 314 314 314 314 314 314
320 321 322 323 322 319 317 316 316 316 316 316 318 317 318 318 317 319 328 332 328 331 334 330 328 329 327 324 322 321 320 319 318 317 317 316 316 316 316 316 316 316 316 315 315 315 314 313 313 313 313 312 312 312 312 312 312 312 312 312 313 313 313 313 313 313 312 311 311 311 311 310 310 309 309 310 311 311 312 312 313 313 313 313 313 314
323 324 322 321 322 321 318 317 317 316 315 316 318 319 320 320 318 320 330 336 332 332 333 329 328 328 327 323 322 320 319 318 317 317 316 315 315 315 315 316 316 316 315 314 314 314 313 312 312 312 311 311 311 311 311 311 311 311 312 312 312 312 312 312 312 311 310 310 310 310 309 309 309 308 308 309 310 310 311 311 311 312 312 312 312 313
325 328 324 321 322 324 324 323 323 322 318 314 317 322 325 324 325 329 333 334 333 332 329 328 328 327 325 322 321 319 318 316 316 316 315 315 315 315 315 315 315 314 313 313 313 312 312 311 311 310 310 310 310 310 310 310 310 311 311 311 311 311 311 311 310 309 309 309 310 309 308 308 308 308 308 308 308 308 309 310 310 311 311 311 311 311
330 330 326 324 323 326 330 330 329 329 325 322 324 329 331 330 331 332 332 330 331 330 326 326 326 324 321 319 318 317 316 316 315 315 315 315 315 315 315 314 314 313 312 312 311 311 310 310 310 310 310 310 310 310 310 309 309 310 311 310 310 310 310 310 309 308 308 308 308 308 307 307 307 307 307 306 306 306 307 307 308 309 309 309 310 310
334 333 329 329 327 326 329 331 330 328 325 326 328 329 331 332 331 330 330 329 329 327 325 324 324 321 319 317 317 316 316 315 315 315 315 315 315 315 314 313 312 311 311 311 310 310 310 310 310 309 309 309 309 309 309 309 309 309 310 310 309 309 309 309 307 307 307 306 306 306 307 306 306 306 306 306 305 305 305 305 306 307 307 308 308 308
332 333 331 330 328 326 325 329 333 330 327 328 327 325 326 330 328 326 327 327 326 324 324 324 322 318 317 316 316 316 316 315 315 315 315 315 315 314 312 311 310 310 310 310 310 310 310 310 310 309 309 309 309 309 309 308 308 309 309 309 309 308 308 308 307 306 306 305 304 305 305 306 306 306 306 305 305 304 304 304 304 305 305 306 307 307
328 332 332 329 328 325 324 328 332 331 329 327 324 322 323 324 323 322 321 321 321 321 320 320 317 315 315 316 315 315 315 314 314 314 315 315 314 312 311 310 310 310 310 309 309 310 309 309 309 309 309 309 309 308 308 308 308 308 308 308 308 308 307 306 306 306 305 304 303 303 303 304 304 305 305 305 304 304 303 303 303 303 303 304 305 306
327 332 332 328 325 325 325 327 328 327 325 323 321 320 320 318 317 317 316 315 317 317 315 315 315 314 314 314 313 313 312 312 313 313 313 313 312 310 310 309 309 309 309 309 309 309 309 309 309 309 309 309 309 309 308 307 307 307 307 306 307 306 306 305 305 305 304 303 303 303 302 302 302 303 303 303 303 303 303 303 302 302 302 302 303 303
327 329 329 326 324 324 325 326 325 322 321 321 320 318 318 318 319 319 318 315 314 315 315 314 313 312 312 311 310 310 310 311 311 310 311 311 310 309 309 309 309 309 309 309 309 308 309 309 309 309 309 308 308 308 308 307 306 306 306 305 305 305 305 304 304 304 303 303 303 303 303 302 302 302 302 301 301 302 302 302 302 302 301 301 301 302
323 325 327 326 323 323 323 322 321 320 320 321 320 318 319 321 321 320 319 316 314 313 313 312 311 310 309 309 308 309 310 310 309 308 309 309 309 309 309 309 309 309 308 308 308 308 308 308 308 308 308 308 308 308 307 306 306 306 305 305 305 304 304 304 303 303 303 303 303 302 302 302 302 301 300 299 300 301 302 302 302 301 300 300 300 300
320 323 326 326 324 323 322 321 320 322 322 323 323 320 319 319 317 316 316 315 313 312 311 310 309 308 308 308 308 309 310 310 308 307 308 308 308 308 308 308 308 308 308 307 307 307 307 307 307 306 306 306 306 306 307 306 306 305 305 305 304 304 304 303 303 303 303 303 302 302 302 302 302 300 299 298 298 300 301 300 300 298 297 298 299 299
321 321 322 325 325 325 324 323 323 323 322 322 323 322 318 316 315 316 319 317 311 310 309 308 307 307 307 307 308 309 310 310 308 307 307 307 308 308 308 308 308 307 307 307 307 307 306 306 306 306 306 305 305 305 306 306 305 305 305 304 304 304 303 303 303 303 303 302 301 301 301 301 301 300 299 298 297 297 298 298 297 297 296 296 297 297
322 319 320 324 324 323 324 324 322 322 322 322 323 321 318 316 316 320 325 320 311 308 308 307 306 307 307 307 308 310 310 309 307 306 307 307 307 307 308 307 307 307 307 306 306 306 305 305 305 305 305 305 305 305 304 304 304 304 304 304 304 304 303 303 303 302 302 302 301 301 301 300 300 300 300 299 298 297 297 297 297 297 297 296 296 296
321 319 320 322 321 320 322 323 321 322 323 322 322 320 318 317 321 326 326 317 309 308 308 307 306 307 307 307 309 309 308 307 306 306 307 307 307 307 307 307 307 307 306 306 306 305 305 305 304 304 304 304 304 304 304 303 303 303 303 304 304 303 303 303 303 302 302 302 302 301 301 300 300 300 300 299 299 298 297 297 297 297 297 296 296 296
323 321 319 320 320 320 321 320 321 322 321 319 320 318 317 321 325 324 317 311 308 308 308 307 307 307 307 308 308 307 306 306 306 306 306 306 307 306 306 306 306 306 306 305 305 305 305 304 304 304 303 303 304 304 303 303 303 303 303 303 302 302 302 302 302 302 302 302 302 301 301 301 300 300 300 299 299 298 298 297 297 297 297 297 296 296
322 321 320 320 321 321 321 320 321 323 319 316 319 319 319 321 321 315 310 309 309 308 307 307 307 307 307 307 306 306 306 305 305 306 306 306 306 306 306 305 305 305 305 305 305 304 304 304 303 303 303 303 303 303 303 303 303 303 303 302 302 302 302 302 302 301 301 301 301 301 301 301 300 300 300 299 299 298 298 297 297 297 297 297 296 296
320 320 322 320 319 321 322 320 320 319 316 316 319 318 316 315 313 310 309 309 309 308 308 308 307 307 307 306 305 305 305 305 305 305 306 306 306 305 305 305 305 305 305 305 305 304 304 303 303 303 303 303 303 302 302 302 302 302 302 302 302 301 301 302 302 301 301 302 301 301 301 301 300 300 300 299 299 298 298 297 297 297 297 297 296 296
320 319 319 318 316 318 320 318 316 316 314 314 315 314 312 312 311 310 310 309 309 309 309 308 307 307 307 306 305 305 305 305 305 305 305 305 305 305 305 305 305 305 305 304 304 304 304 303 303 302 302 302 302 301 302 302 302 301 301 301 301 301 301 301 301 301 301 301 301 301 300 300 300 300 300 300 299 299 298 297 297 297 297 297 296 296
316 315 316 317 316 316 316 315 315 314 314 313 313 312 311 311 311 310 310 309 309 309 308 307 307 306 306 305 305 305 305 305 305 305 305 305 305 305 305 305 305 304 304 304 304 303 303 302 302 302 302 301 301 301 302 302 301 301 301 301 301 301 300 300 300 301 301 301 300 300 300 300 300 299 300 299 299 299 298 298 297 297 297 297 296 296
315 315 316 317 317 317 316 315 314 313 313 313 312 312 312 311 311 310 309 309 308 308 307 307 306 305 305 305 305 305 305 305 305 305 305 305 305 304 304 304 304 304 304 304 303 303 302 302 302 301 301 301 301 301 301 301 301 301 301 301 301 301 300 300 300 300 300 300 300 300 300 300 299 299 300 299 299 299 298 298 297 297 297 297 297 296
317 316 315 316 316 316 316 315 313 312 312 312 311 312 311 311 310 309 308 308 307 307 306 306 306 305 305 305 305 305 304 304 305 305 305 304 304 304 304 304 304 304 304 303 303 302 302 301 301 301 301 301 301 300 301 301 300 300 301 301 301 301 300 299 299 299 300 300 300 300 300 299 299 299 300 299 299 299 299 298 297 297 297 297 297 296
316 316 315 315 315 315 315 314 312 313 312 311 311 310 310 310 309 308 307 307 307 306 306 305 305 305 305 305 304 304 304 304 304 304 304 304 304 304 304 304 304 303 303 303 302 302 301 301 301 301 301 301 300 300 300 300 300 300 300 300 300 301 300 300 299 299 299 299 300 299 299 299 299 299 299 299 299 299 299 298 297 297 297 297 297 296
315 315 314 314 314 314 314 313 312 313 312 311 310 310 309 309 308 307 307 307 306 306 306 305 305 305 305 305 304 304 304 304 304 304 304 304 304 304 304 303 303 303 302 302 302 301 301 301 301 301 301 300 300 300 300 300 300 300 300 299 300 300 300 300 299 299 299 299 299 299 299 299 299 299 299 299 299 298 298 298 298 297 297 297 297 296
315 313 313 314 314 314 313 312 312 311 311 310 309 309 309 308 308 307 307 306 306 306 306 305 305 305 305 304 304 304 304 304 304 304 304 304 304 304 303 303 303 302 302 302 301 301 301 301 301 301 301 300 300 300 300 300 300 300 300 300 299 299 299 299 299 299 299 299 298 298 298 298 299 299 299 299 299 298 298 298 298 297 297 297 297 297
Wind_Speed
15 7 9 11 9 10 11 10 7 7 11 11 7 7 10 8 8 12 9 14 16 10 10 11 9 8 6 6 8 12 23 29 26 25 25 27 28 27 27 24 21 20 19 18 18 16 15 15 14 15 14 14 13 12 11 13 12 11 10 10 10 9 8 7 7 5 4 3 3 3 3 4 5 7 8 8 8 9 10 11 11 12 14 15 17 18
14 9 11 11 8 9 11 10 8 9 13 13 8 6 9 9 10 14 9 16 17 9 9 11 8 8 7 5 8 11 15 21 25 24 24 26 26 28 28 26 23 21 20 19 17 17 18 17 16 16 15 14 13 13 11 12 12 10 10 9 9 8 7 7 6 5 4 3 4 4 5 6 6 7 8 9 10 10 11 12 12 13 14 15 16 18
11 11 10 9 9 10 9 10 11 12 12 11 8 5 5 7 10 12 9 18 16 7 8 12 8 8 8 7 9 8 11 17 25 26 27 29 29 30 30 29 28 24 22 20 18 18 18 17 15 14 14 13 12 12 11 11 11 11 9 8 8 7 6 5 4 3 3 4 5 5 6 6 6 7 8 9 10 11 12 12 12 13 14 15 15 16
9 8 9 10 10 11 9 10 14 12 10 9 7 5 6 7 8 7 7 18 17 7 9 12 7 5 6 7 6 12 22 22 25 27 27 31 33 32 31 30 30 28 24 23 21 20 19 16 13 12 13 12 10 10 9 9 8 9 8 7 6 6 5 4 4 4 4 4 5 4 4 4 4 3 4 6 7 10 12 13 13 14 16 17 16 16
7 6 11 11 9 11 10 11 13 10 9 9 9 8 7 10 12 7 9 17 14 8 8 9 5 1 5 8 5 14 26 23 27 31 27 28 31 32 32 29 27 27 25 25 22 21 21 19 15 14 13 12 11 11 10 9 8 7 7 6 4 4 5 5 6 6 4 4 4 3 2 2 2 2 4 6 8 10 12 13 14 15 16 18 18 17
8 10 16 13 10 13 12 11 13 10 8 9 10 12 12 14 14 7 11 15 8 6 6 9 6 2 1 8 7 10 17 16 20 25 22 24 27 30 31 27 25 25 24 23 22 22 23 21 19 16 14 14 13 13 12 11 10 10 9 8 6 4 2 4 6 6 4 4 4 3 2 2 3 5 7 9 11 12 14 16 16 16 16 18 19 18
7 12 16 14 14 16 14 11 13 12 8 8 9 13 14 16 16 11 9 11 6 6 6 8 8 1 2 4 6 10 15 14 15 16 16 21 24 26 26 24 25 24 24 24 22 21 22 21 20 18 16 15 15 16 14 13 13 12 11 9 8 6 5 4 5 6 7 5 4 3 2 3 4 7 8 10 12 12 13 15 16 16 16 18 19 18
9 14 16 16 16 14 14 11 13 13 9 8 10 12 12 14 17 14 8 8 6 5 4 6 8 4 3 4 6 12 16 15 14 12 13 18 21 22 22 21 23 23 23 24 23 21 21 20 18 18 17 16 15 16 15 14 14 12 11 11 9 8 8 8 8 8 9 8 6 5 4 4 5 7 8 10 12 12 12 13 15 15 15 17 17 16
10 14 15 18 16 11 12 12 13 14 10 9 10 11 12 13 15 13 6 6 8 6 3 6 8 5 4 4 6 12 15 15 14 12 13 17 19 20 21 21 22 22 22 23 22 21 20 18 17 16 16 15 13 13 11 10 11 11 11 11 11 11 10 10 11 10 9 10 10 8 7 7 7 7 9 10 11 11 12 12 13 14 15 15 16 16
10 15 15 15 13 10 11 12 14 14 10 9 11 11 11 12 10 6 3 4 8 7 5 9 11 6 3 4 6 9 11 14 13 10 12 17 19 19 21 22 21 22 22 21 20 19 17 16 15 13 13 12 11 9 8 8 10 10 10 10 11 10 9 9 11 11 9 10 11 9 8 8 8 8 9 10 10 11 11 12 12 14 14 15 16 15
11 19 18 12 13 12 11 12 15 16 9 8 12 11 10 10 5 1 2 2 5 5 6 12 14 9 3 5 7 6 9 16 14 10 11 15 18 19 19 21 21 22 22 21 20 18 16 14 12 11 10 9 8 8 8 8 9 9 8 8 8 8 8 8 10 10 10 10 10 10 10 9 8 8 9 9 9 9 10 11 12 13 14 15 15 14
12 17 14 11 18 16 11 11 14 16 11 8 9 7 6 6 1 2 1 3 4 4 6 11 13 10 6 6 7 8 14 19 16 13 14 16 18 19 18 19 20 20 20 20 20 17 15 13 11 9 8 6 5 4 4 4 6 7 5 3 1 0 4 7 8 9 10 10 10 11 12 11 9 9 8 8 8 9 10 11 11 13 14 16 16 15
11 12 12 12 19 20 12 8 10 12 10 9 7 6 5 3 2 2 2 3 4 4 6 9 9 7 4 3 2 11 16 16 17 19 20 20 22 21 20 20 18 18 17 17 17 15 14 13 11 8 8 7 6 6 4 4 4 6 7 7 6 5 2 1 3 4 7 9 10 10 10 9 9 9 9 10 9 9 12 12 11 13 15 16 17 17
7 9 14 13 12 18 15 7 8 9 9 11 9 6 6 3 4 5 3 3 4 3 6 9 6 3 3 3 4 8 13 16 23 25 25 25 25 24 23 22 20 18 17 16 15 14 13 12 9 7 7 7 6 7 7 7 8 9 9 7 5 4 4 5 4 3 2 1 5 6 6 5 5 6 7 8 8 9 13 13 13 14 15 16 17 18
7 7 14 14 8 15 17 10 9 9 7 10 9 6 5 3 4 4 3 4 4 2 4 7 3 0 2 1 3 10 17 22 27 28 27 27 26 26 25 23 22 20 18 17 16 14 12 10 8 7 6 5 6 8 8 10 12 11 8 6 6 7 8 8 6 4 6 5 3 1 1 1 0 1 3 4 6 8 11 12 13 14 14 14 15 15
9 6 10 15 10 15 17 11 10 9 6 7 6 5 5 5 5 4 4 6 6 4 3 3 2 2 4 4 7 14 17 20 25 26 26 25 25 27 25 23 22 21 20 19 18 17 14 12 10 9 8 7 9 10 9 9 10 10 8 8 10 13 13 10 8 10 11 10 9 8 7 6 4 2 1 2 4 6 7 9 11 12 12 13 13 13
7 5 9 16 13 16 19 13 11 10 6 4 5 5 6 5 4 4 2 2 6 6 1 1 3 4 4 4 7 12 14 15 18 21 23 23 23 25 24 22 22 21 20 19 18 17 15 13 12 10 10 9 10 10 9 9 9 8 7 9 14 18 19 18 19 20 19 16 14 14 12 10 8 5 4 4 5 5 5 6 7 8 10 11 11 12
5 2 7 17 14 15 19 15 11 10 7 5 5 6 4 4 4 4 3 0 4 5 1 0 5 6 5 2 4 10 12 12 13 15 18 20 21 23 23 22 22 21 20 18 17 16 14 13 11 9 9 9 9 10 10 12 11 10 8 11 15 18 20 21 22 23 23 20 19 18 17 15 13 11 9 9 8 6 5 6 6 6 7 9 10 11
6 2 4 14 12 10 13 11 8 9 8 6 6 6 5 4 5 3 4 3 4 4 1 2 6 6 4 4 8 12 13 13 13 13 14 16 18 22 22 21 21 21 20 18 16 15 14 13 11 10 10 11 11 11 11 12 13 13 13 14 15 17 19 19 19 22 22 21 20 19 18 18 18 17 15 15 13 10 8 8 8 7 6 6 7 8
5 3 2 10 11 8 7 6 6 7 8 5 5 5 5 4 4 4 4 4 5 4 3 5 6 4 2 5 11 13 14 16 15 12 12 15 19 22 22 21 20 20 19 18 16 15 14 14 13 12 12 11 12 12 11 10 11 14 16 15 13 15 19 19 18 20 21 20 20 19 19 19 19 18 18 18 18 14 11 10 9 8 7 7 8 7
2 3 1 6 9 8 5 6 9 8 6 4 4 5 6 4 4 3 3 3 5 5 4 5 4 3 1 4 10 12 13 15 15 12 11 15 19 21 22 21 20 20 19 18 18 17 15 15 14 13 13 13 12 11 9 8 10 14 15 16 14 16 19 20 19 19 21 20 20 20 20 19 17 17 18 19 19 17 15 13 10 9 8 8 9 9
3 3 1 3 6 6 6 10 12 9 6 5 4 5 6 5 5 4 2 2 3 4 5 6 4 2 2 0 7 12 11 12 16 16 14 17 21 21 22 21 21 21 19 19 20 17 14 14 14 13 12 13 13 12 12 12 12 14 14 15 16 18 18 18 17 17 18 19 20 22 21 19 17 17 19 20 20 20 19 17 15 12 10 9 8 8
4 3 3 3 5 4 5 10 12 10 7 6 5 5 5 5 5 5 3 4 2 3 5 4 3 1 4 2 8 12 13 16 20 21 20 20 22 22 23 23 22 21 20 20 19 16 14 15 15 14 13 13 14 14 15 15 15 15 16 16 16 17 17 16 15 13 13 15 18 20 20 20 19 20 21 22 22 22 21 20 19 17 16 14 11 7
4 2 4 5 4 3 5 6 9 11 9 6 6 5 5 5 6 6 4 5 4 3 5 4 2 1 2 4 11 16 19 21 21 23 23 22 22 23 24 23 22 22 21 18 15 13 14 15 15 15 15 14 14 15 15 15 15 17 17 17 17 16 16 16 15 14 13 14 16 19 20 21 22 22 23 24 24 23 22 21 20 18 18 18 16 12
4 2 4 6 3 2 4 3 5 11 10 5 5 6 6 5 8 6 2 3 3 2 7 6 1 2 4 6 12 16 18 18 19 23 24 23 22 23 24 23 23 23 19 16 14 14 15 15 14 15 15 14 15 15 14 14 15 17 17 17 16 17 17 17 16 16 16 16 18 21 22 22 23 24 24 25 25 25 24 23 21 20 19 18 18 17
5 3 4 6 6 6 7 5 4 7 7 3 4 8 10 6 7 7 3 3 3 2 7 7 4 4 7 11 12 13 14 14 17 21 22 23 23 22 23 24 23 22 19 16 16 16 16 16 15 14 15 15 15 14 14 14 14 15 15 15 16 16 16 16 15 15 17 17 19 21 23 24 25 25 25 26 26 25 25 24 23 22 21 20 18 18
2 2 3 6 6 6 4 3 3 2 4 3 3 5 9 8 6 6 5 4 6 5 4 6 13 12 9 13 14 12 13 13 14 19 21 21 23 23 24 24 22 21 19 17 17 17 17 18 16 14 16 17 15 15 17 17 16 15 15 17 18 16 14 12 12 13 15 17 19 20 22 24 25 25 25 25 25 25 25 24 24 23 22 21 20 19
1 2 5 5 5 5 3 4 5 4 4 3 2 4 5 8 8 5 4 6 8 7 3 7 18 17 10 13 15 13 14 13 13 18 21 21 23 24 24 24 22 21 19 18 18 17 17 18 17 15 16 17 17 17 18 18 17 18 20 20 18 15 14 12 11 13 15 17 20 20 21 24 25 24 24 23 24 25 25 24 24 24 24 22 21 21
3 2 6 5 3 3 4 4 5 4 3 1 3 6 7 9 10 6 4 6 7 8 7 12 17 16 13 13 14 13 14 16 17 21 23 23 24 24 23 22 21 20 19 19 19 18 17 17 17 16 16 18 18 18 19 18 18 20 22 19 15 13 13 13 13 14 16 19 22 21 21 23 24 23 23 24 24 25 26 26 26 25 25 25 24 23
4 0 3 5 2 3 1 2 7 5 3 4 2 2 3 4 5 5 4 5 8 12 17 19 14 11 10 11 12 15 19 23 25 25 25 24 24 23 21 20 20 20 19 19 19 18 17 17 18 17 18 19 19 19 18 17 17 20 21 18 15 14 13 13 15 17 19 21 21 20 21 23 23 24 25 26 27 27 27 27 27 27 27 27 27 26
4 0 2 4 3 4 5 8 11 9 6 5 7 10 10 6 7 9 10 12 14 13 16 20 15 7 7 11 16 20 24 25 25 24 24 24 23 22 21 21 21 21 19 19 19 18 17 18 19 19 19 20 19 18 17 16 16 18 18 16 15 15 14 15 18 20 21 21 20 21 23 24 24 25 26 27 28 28 28 28 28 28 28 28 28 28
4 1 3 4 5 2 6 9 9 10 13 11 10 11 9 6 8 7 6 10 15 16 16 16 11 5 7 15 18 21 23 23 22 23 24 23 23 23 22 23 22 21 20 19 19 19 19 19 19 19 20 19 17 15 16 17 17 17 16 15 14 14 14 17 21 23 24 23 23 23 24 25 25 27 27 28 28 28 28 28 28 28 29 28 28 28
5 3 2 4 4 2 5 7 7 7 8 6 5 8 6 4 12 11 9 8 12 17 14 10 8 9 13 18 18 16 17 19 19 22 25 25 24 24 24 24 23 21 20 19 19 19 18 17 18 18 18 17 17 15 15 17 18 17 16 15 14 15 16 19 23 25 25 25 25 25 25 25 25 26 27 27 28 29 29 29 29 29 29 28 27 27
5 6 3 3 4 2 4 6 6 5 4 1 5 6 3 7 18 15 10 9 9 9 8 8 11 13 14 17 17 15 15 17 19 22 25 27 28 27 26 25 23 21 20 19 19 18 17 17 18 18 16 16 17 17 17 19 20 17 16 15 16 17 18 20 23 24 25 25 27 27 27 25 25 24 23 23 24 27 30 30 30 30 29 28 27 27
6 7 3 3 4 1 2 6 5 2 1 4 4 6 5 10 22 23 14 10 10 13 15 15 14 14 14 17 21 23 22 23 24 23 24 26 28 28 27 25 23 22 21 20 19 17 16 16 16 16 14 13 14 16 18 21 21 18 17 17 18 19 20 21 23 24 25 26 28 29 30 29 28 26 24 22 22 25 28 29 30 31 30 29 28 27
6 5 4 3 3 2 2 4 3 2 2 2 4 9 5 3 13 19 14 10 7 11 16 16 14 14 17 22 25 29 31 31 29 25 24 25 25 25 26 25 24 23 22 20 18 17 16 14 13 13 11 10 11 14 17 19 20 20 20 20 21 22 22 24 24 25 25 26 28 29 29 30 29 29 28 25 23 23 26 27 29 29 29 29 29 29
9 6 4 3 2 2 4 4 2 0 1 2 4 5 3 5 3 6 8 5 4 7 13 16 15 14 19 23 26 31 35 31 22 18 21 24 23 23 24 24 23 22 21 19 17 16 14 13 12 11 9 9 11 14 16 18 19 21 22 23 23 24 25 26 26 25 24 24 25 26 27 27 27 28 29 28 25 23 23 24 25 26 26 27 28 30
7 7 6 4 1 2 5 4 2 0 2 4 3 4 8 7 4 6 8 5 3 8 13 15 15 16 19 23 27 31 31 20 8 9 20 24 22 23 23 22 22 22 22 20 17 16 15 14 14 14 14 14 14 14 14 15 17 20 23 23 23 24 25 26 25 23 22 22 21 22 23 23 24 27 31 31 29 25 22 22 25 26 27 27 27 28
5 5 7 6 2 2 4 4 3 2 2 5 4 2 9 15 13 7 6 2 5 13 18 18 16 18 22 25 28 27 20 9 3 10 21 24 21 22 23 22 21 21 19 18 18 18 18 18 18 18 17 17 17 15 13 13 14 17 21 23 23 23 23 23 22 20 20 22 22 22 23 23 23 26 31 34 33 30 27 27 29 31 31 31 30 28
5 4 6 5 4 3 3 3 2 1 2 5 6 7 11 13 10 5 2 4 10 19 24 22 19 20 25 29 27 17 8 8 13 19 24 24 22 24 24 22 21 20 20 19 19 20 21 20 19 18 17 17 17 16 15 15 15 15 17 18 20 21 21 20 19 20 20 21 23 24 25 25 25 27 29 33 33 33 32 31 32 33 34 33 32 30
2 2 5 5 5 4 4 3 1 1 2 2 4 8 10 5 3 2 3 8 19 26 28 28 25 26 29 28 19 8 7 18 29 30 28 26 26 25 23 21 21 22 21 20 20 20 20 19 18 19 19 18 16 15 16 19 20 20 17 17 18 19 18 16 16 18 19 20 21 23 23 24 25 26 28 31 33 34 35 34 34 35 36 36 34 32
1 2 4 5 4 4 3 3 2 0 2 3 1 6 8 4 0 2 5 17 29 30 28 30 30 29 29 23 15 15 23 31 34 33 30 29 28 25 22 22 23 22 21 21 21 20 20 20 19 19 19 18 17 16 17 20 22 23 21 19 18 16 15 15 15 16 18 19 19 19 21 22 22 23 27 30 32 34 35 35 35 36 37 37 37 35
0 2 4 3 3 3 3 2 2 2 2 3 3 3 4 1 5 12 18 25 29 30 30 31 30 28 26 22 22 30 37 36 33 31 31 29 27 25 24 24 24 23 23 23 21 20 20 19 19 19 19 18 16 16 17 19 21 22 21 20 19 17 16 16 17 17 17 18 19 20 21 22 23 23 25 29 31 32 34 35 36 37 38 39 40 39
1 1 2 0 1 2 4 2 2 2 1 2 2 3 4 9 18 25 27 26 26 28 30 29 28 27 27 29 33 37 39 36 32 30 30 29 27 26 25 26 25 24 23 21 19 19 19 19 19 20 19 18 17 16 15 16 18 19 19 18 17 17 17 16 16 17 17 17 19 21 22 24 25 25 25 27 29 31 32 34 36 37 38 40 41 42
1 3 6 4 1 3 4 2 3 8 12 15 17 17 19 22 24 27 29 28 27 27 28 30 31 30 31 36 38 37 36 36 33 31 31 31 28 27 27 26 24 22 21 20 19 19 18 19 20 20 18 17 18 17 15 15 17 19 19 19 17 17 19 19 18 18 17 17 19 20 21 23 25 26 26 26 28 30 32 34 35 37 37 39 41 43
4 7 8 6 4 5 8 7 9 14 19 22 24 25 26 26 25 25 28 28 26 27 30 33 35 35 37 40 40 36 35 37 35 32 32 31 28 26 26 25 23 22 22 21 20 20 19 18 19 19 18 18 17 16 15 15 16 17 17 18 18 18 19 20 20 18 17 17 18 19 20 22 24 25 25 25 27 29 31 33 34 35 36 37 39 42
4 5 6 4 4 4 4 5 9 15 18 22 24 24 25 26 25 25 27 27 28 31 34 35 37 37 37 39 39 38 36 36 36 33 30 28 28 27 26 24 22 22 23 21 19 20 19 18 19 19 19 18 16 17 18 18 18 17 16 15 15 16 19 21 21 19 18 17 17 18 19 21 23 23 23 24 26 28 30 31 32 33 34 34 36 39
4 7 7 4 3 4 5 8 14 20 20 22 23 24 26 28 27 26 27 28 31 33 34 36 37 37 35 35 38 40 37 34 34 33 30 30 30 28 26 25 23 23 22 21 19 19 19 20 20 19 18 17 16 16 18 18 17 17 16 15 13 13 16 19 21 20 19 17 17 17 18 21 22 21 21 23 25 26 27 29 30 32 33 32 33 37
8 7 5 5 6 7 7 12 18 18 16 18 22 24 27 29 30 29 29 31 33 34 35 35 35 35 36 37 37 38 37 34 32 33 33 32 30 28 26 25 25 24 22 21 20 19 19 20 20 19 19 18 16 15 15 16 16 15 14 14 15 16 16 16 19 20 19 17 16 16 18 20 20 19 20 22 23 24 25 26 28 29 30 30 31 34
8 6 5 7 8 5 5 9 13 11 8 12 21 25 26 28 30 31 33 33 34 35 35 34 34 34 36 36 36 37 37 35 34 34 33 30 28 27 25 25 24 22 20 21 20 19 19 21 20 19 18 17 17 17 16 15 16 15 13 12 13 14 14 13 15 18 17 16 16 17 18 18 18 18 19 20 22 24 24 24 25 27 27 27 28 31
6 10 8 6 6 6 10 15 17 15 13 17 24 26 26 28 30 32 33 33 33 34 35 36 37 36 33 33 34 35 36 36 35 33 31 28 27 27 26 25 24 22 21 21 20 19 19 20 20 19 19 17 16 16 15 15 14 13 13 13 13 13 13 12 13 15 16 15 17 17 17 17 17 16 16 18 21 23 23 21 22 25 26 24 25 27
Wind_Direction
204 209 219 214 202 202 212 221 216 215 235 242 220 180 199 218 237 244 216 174 178 188 209 213 203 204 206 169 164 148 126 124 132 136 138 139 136 132 132 135 133 127 125 129 131 131 129 123 117 118 128 142 142 136 138 139 141 147 150 154 159 161 161 163 165 170 187 199 220 239 255 273 279 284 285 286 286 284 285 284 282 282 279 276 273 270
204 220 224 210 196 201 206 213 219 229 238 243 238 202 202 205 225 248 216 170 177 181 204 213 189 189 204 165 159 153 125 128 141 144 142 139 130 127 129 128 125 123 126 131 132 127 122 118 114 114 122 133 134 129 130 132 136 141 145 150 153 159 167 171 172 174 182 218 246 261 270 276 280 282 284 285 286 285 286 289 290 292 288 283 281 276
208 225 216 198 198 206 202 197 214 236 243 244 249 235 228 213 217 246 213 168 176 181 195 205 189 193 198 159 159 142 109 129 144 146 146 136 124 122 124 123 122 122 123 126 125 122 122 123 123 123 124 125 127 126 126 129 132 135 138 147 152 157 173 185 190 193 217 252 255 263 272 280 287 286 288 290 293 295 297 301 302 302 300 296 291 284
209 218 203 200 196 198 202 196 207 232 244 244 243 234 252 239 219 237 191 168 179 182 178 190 185 189 177 140 138 103 91 99 113 119 126 126 122 121 122 124 125 124 122 123 123 122 123 123 122 125 125 126 130 131 133 134 131 132 133 137 147 157 173 186 188 198 224 236 237 244 258 285 296 290 292 292 296 300 301 304 305 306 307 304 300 293
215 180 185 206 197 194 208 205 203 217 238 242 236 228 242 246 238 227 171 168 180 190 171 157 122 161 150 116 112 99 93 92 98 100 102 108 115 118 120 123 124 126 125 122 120 120 120 119 120 123 123 125 130 130 133 138 136 130 121 118 134 165 184 188 186 190 203 204 201 204 226 281 288 294 298 296 300 303 299 297 300 304 305 305 305 300
221 174 179 202 202 201 213 215 205 202 224 245 236 229 234 245 256 243 164 157 167 209 189 141 113 303 196 119 124 105 96 97 99 98 96 100 107 112 114 117 119 122 123 121 120 120 121 122 125 126 121 118 119 120 123 124 123 117 112 112 113 119 140 173 179 169 150 150 160 170 208 271 287 296 299 302 303 301 300 299 300 303 306 307 308 305
214 185 181 197 200 202 213 220 213 200 207 240 230 225 231 239 258 260 183 158 161 201 190 151 140 223 280 131 131 112 103 102 96 94 97 99 104 107 109 113 117 119 120 122 123 122 123 126 127 127 121 118 117 119 123 122 123 123 118 120 121 117 116 132 152 149 144 152 165 179 230 271 280 288 293 296 294 292 296 298 299 303 308 308 309 309
202 195 187 195 199 202 211 215 212 203 201 233 230 222 230 233 245 253 215 175 175 177 154 137 133 133 201 204 157 124 108 101 95 93 97 98 102 106 107 110 114 118 121 121 120 119 122 125 127 126 122 124 124 122 126 126 130 135 130 131 140 147 151 155 162 164 168 179 191 199 216 236 252 266 271 274 279 285 290 292 296 302 307 309 310 313
194 204 192 190 199 205 207 209 209 208 208 227 236 231 233 232 237 249 239 185 172 161 130 133 128 125 191 212 159 134 119 113 113 111 108 105 107 106 105 108 112 117 120 120 119 117 119 122 125 126 124 129 133 129 128 130 137 148 151 151 158 165 168 172 178 181 183 189 199 205 210 220 235 249 256 261 271 281 287 292 300 305 307 307 308 316
190 215 209 188 198 210 204 204 207 215 216 216 234 245 243 239 235 237 235 184 159 156 169 160 144 129 205 219 165 150 137 129 125 121 118 113 113 112 110 111 113 115 117 118 119 117 118 120 124 130 132 138 146 147 151 159 160 160 165 170 173 177 183 185 189 194 196 198 205 211 215 223 234 246 254 260 270 279 288 294 298 300 304 304 305 314
195 212 222 204 197 204 202 203 210 219 215 201 226 247 255 248 239 157 201 169 139 167 191 174 158 137 158 209 186 166 141 135 131 124 123 118 116 115 112 112 113 113 114 113 112 114 115 117 121 131 136 139 149 163 173 174 167 166 176 184 185 193 204 209 208 208 210 211 213 216 221 228 235 246 256 265 274 284 292 297 299 298 299 299 298 304
205 200 219 213 195 194 201 203 209 219 216 205 218 230 253 258 271 40 259 163 154 210 212 181 167 148 151 214 200 152 135 138 138 134 132 127 121 116 110 110 111 111 112 112 111 109 108 108 110 113 115 116 122 143 158 151 150 155 156 148 96 174 217 223 226 224 225 227 226 226 230 236 243 252 264 277 289 305 310 308 308 306 303 301 298 295
219 200 205 206 192 189 199 200 201 215 210 209 216 197 214 245 188 189 203 183 192 217 203 174 166 160 154 258 214 136 137 139 133 131 132 129 124 120 116 114 112 111 111 110 108 105 103 102 98 96 92 85 75 68 60 60 88 94 82 70 55 43 32 264 244 234 234 236 235 239 245 252 260 261 266 275 289 321 324 318 318 316 314 315 312 306
225 214 199 202 191 187 199 194 189 208 195 201 215 181 176 183 175 193 172 179 211 211 185 163 154 170 134 346 345 108 120 121 118 120 123 123 123 120 120 121 117 115 112 107 104 102 100 98 95 94 88 81 76 65 49 44 62 74 75 72 65 43 8 346 343 6 46 235 232 234 244 257 263 263 271 274 286 324 328 324 328 326 321 319 316 313
208 222 194 196 186 180 198 203 184 192 186 205 213 168 175 187 160 181 159 162 195 184 160 149 136 319 112 18 11 86 98 106 110 114 115 115 118 119 120 121 119 117 114 109 104 96 90 89 87 85 80 80 79 68 59 64 68 72 70 44 15 0 345 335 337 12 46 36 6 337 294 9 36 264 292 284 285 317 333 335 336 333 330 324 318 315
206 228 188 193 194 176 192 209 188 183 192 211 202 163 199 207 144 153 168 154 153 140 121 121 91 50 88 72 70 89 95 103 109 114 115 116 120 122 121 121 121 121 118 113 109 103 98 93 84 78 77 80 83 74 65 71 70 60 49 29 17 13 7 8 25 32 31 19 8 16 28 32 41 51 1 313 304 323 341 347 344 341 340 337 333 328
197 224 184 187 204 191 186 198 194 188 189 191 194 194 206 202 146 123 161 139 114 123 149 82 104 107 102 66 79 100 103 108 115 117 119 123 125 123 122 124 125 122 118 116 116 116 113 106 97 91 89 89 93 86 68 65 67 58 45 26 21 26 32 38 40 32 24 21 22 25 28 29 30 32 18 349 346 351 351 348 346 345 345 347 347 340
180 230 193 184 204 206 186 188 204 206 193 169 193 208 190 208 207 126 123 21 96 120 257 356 135 152 158 148 133 126 116 117 124 121 120 124 124 121 123 128 127 122 119 117 116 117 113 109 104 97 93 90 92 90 77 69 65 62 53 33 29 38 46 46 41 31 22 20 24 26 26 27 26 23 19 6 358 351 336 331 334 342 347 350 350 344
189 189 214 193 197 201 180 178 213 235 229 192 174 179 159 190 229 176 158 176 131 127 94 123 159 180 190 174 160 148 139 136 133 128 126 127 124 123 124 126 124 121 119 114 113 114 111 109 104 95 93 91 87 85 83 75 65 61 53 40 44 57 58 54 43 32 24 19 18 19 22 26 26 22 19 13 6 357 344 336 329 327 331 332 337 340
194 145 210 201 179 165 167 174 206 234 244 217 163 168 178 179 183 175 184 171 136 133 127 137 173 225 247 176 168 159 150 145 142 138 134 131 128 125 124 125 122 117 115 112 110 107 104 105 103 98 95 91 87 85 84 78 67 62 52 41 51 71 68 61 48 33 27 22 16 17 24 29 29 22 15 10 5 2 1 354 336 322 314 308 311 317
151 113 182 206 170 155 165 198 206 204 213 215 180 178 198 198 169 171 218 185 136 132 137 138 176 237 246 174 169 157 146 144 143 137 129 127 127 125 126 125 120 116 116 114 108 101 101 105 103 100 97 91 88 86 80 72 65 61 52 41 50 71 69 60 52 42 33 25 19 21 28 32 29 18 10 6 1 2 6 5 356 339 319 304 299 299
110 136 189 212 186 173 177 198 209 208 199 199 195 185 188 182 158 149 245 230 143 135 145 145 159 196 325 254 153 143 141 143 138 131 126 126 126 126 126 123 120 119 118 114 110 106 106 109 104 99 99 93 86 77 68 65 68 64 52 44 53 67 64 54 53 49 39 31 26 26 27 27 23 13 8 6 4 5 6 5 4 359 347 333 315 300
105 129 149 186 212 216 201 195 202 218 229 223 220 199 172 165 145 132 178 216 190 140 122 105 124 156 339 5 133 133 133 133 132 130 126 126 128 126 122 122 121 118 113 112 111 107 106 108 105 99 95 90 82 75 69 67 68 65 52 46 56 65 60 51 48 45 36 31 29 27 25 22 17 10 9 9 8 8 8 8 8 6 1 358 351 333
94 99 140 167 210 243 241 213 192 209 237 248 233 201 170 178 162 140 155 180 194 178 121 86 71 127 23 67 117 125 126 126 128 129 127 126 126 123 121 122 120 115 111 112 113 107 106 107 103 95 88 83 79 76 73 70 70 68 59 53 56 58 55 47 39 33 29 30 31 28 22 19 16 11 10 13 15 15 15 15 14 11 7 5 2 358
153 157 124 146 163 202 235 252 197 204 219 230 224 206 190 173 157 151 122 131 191 187 124 118 112 134 126 113 115 121 124 123 125 127 126 124 123 122 124 122 117 114 113 115 115 107 102 100 97 93 87 84 86 82 77 77 77 73 67 64 63 58 56 51 43 36 33 35 36 29 21 18 18 17 16 18 22 24 23 21 19 16 13 11 8 5
186 181 115 142 170 183 195 216 217 202 202 217 233 204 192 179 156 158 136 128 179 123 104 119 126 116 117 116 116 122 124 122 123 124 122 122 123 125 125 121 117 115 114 115 114 107 102 100 98 96 87 84 90 85 76 78 78 72 69 70 65 58 57 57 50 43 38 37 39 32 24 21 21 23 22 22 25 28 29 28 25 22 19 16 12 8
221 183 133 145 172 189 207 246 251 181 169 196 281 234 201 205 193 148 127 161 163 109 76 126 133 128 130 130 131 135 131 127 125 123 120 121 124 124 122 119 117 115 116 117 113 108 106 101 97 96 87 81 82 79 74 72 70 69 70 67 62 57 54 52 48 44 39 39 40 35 29 27 27 27 26 25 29 32 33 34 33 29 27 24 19 15
130 174 171 155 172 198 243 281 258 219 180 159 244 279 238 218 213 166 141 178 155 108 73 147 138 135 147 147 143 143 137 130 127 126 124 125 125 124 122 121 119 120 121 119 114 111 107 99 95 95 92 86 82 78 75 69 66 72 71 65 64 63 53 40 36 36 36 40 40 35 35 35 31 30 29 28 31 35 37 39 38 36 34 33 30 27
95 179 187 160 160 207 220 254 264 233 216 174 211 251 258 234 220 195 169 182 156 129 147 163 148 139 145 147 141 139 134 127 125 126 126 126 125 125 126 125 125 124 120 113 111 111 108 101 98 97 95 91 84 78 75 69 68 74 71 63 62 58 42 26 23 30 39 44 39 34 40 41 34 31 33 32 34 37 38 40 39 38 37 36 36 36
82 223 193 145 135 308 286 40 10 2 288 276 271 313 306 248 194 134 113 108 108 122 138 142 131 119 129 136 130 128 126 123 123 123 124 125 127 131 132 129 126 121 115 112 112 110 108 105 100 96 94 91 85 79 73 67 70 75 73 70 65 53 34 22 24 36 46 47 39 36 44 44 35 33 35 33 33 35 36 38 38 36 35 35 36 36
90 353 300 117 120 328 10 46 34 41 54 26 22 30 33 54 89 98 104 96 91 102 122 124 113 91 105 114 116 122 124 123 123 125 127 132 136 137 132 124 120 116 115 117 115 112 110 107 100 95 92 88 82 74 64 57 64 74 75 73 66 51 34 27 35 45 50 48 43 43 45 42 36 36 36 33 32 31 30 33 34 33 32 33 35 35
92 130 339 75 108 336 9 42 50 70 71 52 27 11 13 54 79 80 93 108 118 124 122 120 119 127 131 119 116 122 125 126 130 134 136 140 141 136 127 121 121 120 120 121 118 116 112 106 98 91 87 84 81 78 68 58 61 71 73 66 56 44 32 36 47 50 48 47 47 47 45 42 39 37 35 33 31 29 28 29 30 29 28 28 31 33
106 112 49 84 102 344 2 39 42 56 63 44 357 332 322 86 89 68 43 66 117 133 138 143 142 141 138 129 124 129 131 133 139 141 140 140 137 130 125 125 125 125 125 124 121 115 108 102 100 95 88 83 84 87 81 71 70 75 75 66 53 42 38 46 54 52 46 44 45 46 45 44 42 38 35 34 32 29 29 29 28 25 21 21 23 27
110 104 75 90 99 355 350 40 45 57 81 288 294 312 307 109 98 83 54 50 77 97 103 111 122 128 132 131 132 132 129 128 133 136 137 138 135 130 127 127 128 128 128 124 117 109 102 102 106 106 101 92 89 92 88 81 80 77 70 60 50 45 45 51 57 54 46 41 41 43 44 45 43 40 36 33 31 31 31 30 28 24 19 17 18 20
103 103 72 57 96 126 359 51 71 119 187 265 317 20 43 95 96 88 66 51 75 95 99 103 116 125 123 122 123 119 113 113 115 120 128 133 133 130 129 130 129 127 122 117 112 107 106 109 110 113 113 100 95 100 94 84 80 71 58 51 46 44 46 52 58 56 48 44 43 43 43 43 42 39 36 32 33 36 35 30 26 23 20 19 19 19
117 112 91 67 81 101 54 70 110 193 255 236 71 59 32 33 87 88 68 39 67 109 116 117 119 118 115 116 118 117 114 110 105 106 120 130 132 131 130 129 126 120 117 117 114 109 109 110 107 109 114 107 102 105 96 87 83 72 58 49 45 45 49 54 57 56 52 50 49 46 44 45 42 36 31 30 32 39 41 36 29 23 20 21 22 22
124 115 101 83 55 93 101 83 71 346 254 191 113 116 196 278 342 93 93 69 76 110 122 125 121 119 121 121 121 120 117 110 96 95 116 129 134 134 131 127 122 118 118 118 115 110 107 105 101 97 100 104 105 104 99 94 90 82 70 58 51 51 54 57 58 58 57 53 51 50 50 48 43 35 31 32 34 36 40 39 33 24 21 23 25 24
114 128 129 116 54 94 110 102 99 161 216 208 201 184 168 156 146 121 102 96 108 109 117 124 124 128 130 128 128 127 121 111 91 110 125 129 135 137 132 127 122 118 116 114 111 107 103 98 93 87 83 86 91 98 103 101 96 90 81 71 64 60 60 60 61 62 56 48 49 55 54 48 43 39 37 38 40 39 38 39 37 32 30 30 30 28
46 97 105 102 92 94 100 114 144 160 212 207 215 198 150 154 160 141 92 111 159 133 126 125 128 137 140 138 140 138 129 117 145 151 139 136 139 140 134 128 123 117 114 113 109 104 101 98 94 90 86 81 79 86 95 97 100 97 87 80 76 73 69 67 65 59 50 45 50 56 53 46 43 40 37 38 43 45 44 44 42 40 39 37 35 35
5 69 89 95 107 110 92 91 119 170 215 190 179 174 172 173 169 140 117 187 167 150 142 137 139 146 146 147 149 150 147 151 154 152 145 140 139 137 130 125 123 117 111 108 105 102 102 101 99 98 96 88 84 85 81 77 84 93 92 86 80 75 72 70 65 56 50 49 52 51 49 47 42 38 36 38 41 43 43 43 43 41 39 38 37 37
319 70 99 111 115 112 105 98 92 277 253 212 167 165 166 154 98 110 208 172 151 150 150 146 146 151 152 153 154 141 131 146 146 144 142 138 134 131 127 125 126 121 114 111 110 109 108 105 100 96 93 91 94 92 78 70 73 79 83 83 78 73 70 69 66 62 57 54 52 49 50 50 44 39 39 39 38 40 40 40 41 40 39 38 37 36
249 57 90 113 125 118 103 98 88 33 265 283 44 113 112 93 265 196 148 142 143 146 149 149 151 156 155 154 145 127 131 140 141 139 139 137 133 130 130 130 127 123 120 119 116 114 113 108 102 98 95 95 99 93 78 72 75 77 76 73 72 71 72 70 67 65 61 56 54 51 50 49 45 42 42 39 37 38 39 39 39 38 37 37 37 36
158 92 90 93 115 114 93 90 129 161 240 288 325 49 61 84 172 137 121 129 139 142 145 149 155 158 153 142 134 133 135 138 139 138 139 137 134 135 136 133 128 125 124 122 117 115 116 111 105 102 99 97 98 92 81 78 81 81 76 71 68 70 76 75 67 64 62 57 53 52 48 46 46 45 44 41 38 37 38 38 37 36 35 35 35 36
292 159 133 79 321 123 121 145 185 165 25 35 96 114 101 123 138 134 127 130 139 143 146 148 150 154 149 137 133 135 136 137 140 142 141 139 137 137 135 130 127 127 126 122 118 117 117 114 108 104 101 99 97 90 86 88 88 82 73 68 68 70 75 78 70 64 63 58 52 50 47 44 43 43 43 41 38 37 38 38 37 35 34 33 33 34
342 99 109 96 43 95 106 121 121 90 78 88 105 112 112 119 131 133 130 133 140 146 147 144 143 148 147 140 136 136 137 139 142 144 142 140 138 136 132 129 130 131 128 124 121 120 118 114 110 106 102 99 91 83 90 98 89 77 69 68 72 74 73 73 72 67 62 55 48 45 44 42 40 39 40 39 37 38 39 37 36 34 32 32 32 32
129 114 99 95 102 83 63 67 88 87 84 93 105 112 116 120 126 128 128 131 137 142 143 142 142 144 144 141 138 138 139 140 141 141 140 139 139 139 136 133 135 135 132 127 123 122 120 114 111 106 102 101 91 84 96 99 79 68 68 69 73 77 73 68 68 66 63 57 48 43 43 41 38 37 40 39 37 38 39 37 36 34 32 32 32 31
176 136 94 98 132 106 67 74 92 90 91 98 104 110 115 118 122 126 126 127 131 137 141 142 142 142 142 141 139 138 139 141 140 140 140 139 141 141 137 135 135 135 132 128 123 123 120 114 112 108 104 106 99 91 97 96 78 70 73 71 73 80 74 64 62 63 62 57 50 45 43 40 37 39 43 41 38 38 39 38 36 34 32 32 32 31
148 119 97 91 100 95 107 117 104 96 97 100 102 108 114 117 120 123 125 127 132 136 139 140 141 140 140 140 138 137 139 141 141 140 140 139 139 138 136 136 135 134 133 130 126 125 122 117 114 109 105 107 104 94 94 94 87 85 84 79 83 90 77 62 59 61 61 58 55 50 44 40 38 40 44 42 38 38 38 37 35 34 33 33 33 32
105 104 101 106 103 96 111 120 110 102 97 99 104 109 115 118 121 123 127 132 134 134 136 138 139 140 140 140 140 139 139 141 141 139 139 139 140 140 139 138 137 135 134 132 128 126 121 116 113 109 103 102 100 94 87 85 87 91 89 86 90 94 85 70 64 63 64 64 64 58 47 41 39 41 44 41 36 36 38 37 36 35 34 34 34 33
88 109 117 118 124 131 144 139 126 115 108 113 117 119 120 124 126 127 130 133 134 135 137 136 137 139 140 140 142 140 139 140 141 140 140 141 142 142 140 137 134 134 135 133 130 127 123 118 116 114 109 104 101 98 93 89 87 84 79 81 87 86 83 82 77 71 66 61 57 55 53 49 46 45 44 39 35 35 37 38 37 35 35 35 34 33
118 158 149 123 138 149 140 134 126 117 116 122 124 126 128 131 132 131 132 135 136 139 140 138 138 139 139 141 143 142 140 141 142 142 142 142 142 140 137 136 134 134 137 137 133 132 132 128 123 119 117 115 112 107 102 97 93 84 73 68 66 63 69 84 88 76 67 59 53 54 57 55 50 49 46 40 38 38 38 39 38 35 35 35 32 31